Retour au catalogue

STARLINK-34975

ActifCommunicationsVLEO
NORAD 65224·PAYLOAD·🇺🇸 United States

Lancé Aug 14, 2025 depuis Cape Canaveral Space Force Station

Loading…

Prochains Passages (prochaines 24 heures)

TLE

FraisSource: CelesTrak SupGP

Époque: Sep 15, 2026, 03:48 UTC

1 65224C 25176AC  26258.15881944  .00074956  00000+0  22148-2 0  2580
2 65224  53.1590 348.7471 0001149  96.4893 283.1445 15.34350522    10

Suivez STARLINK-34975 en temps réel avec AllMySat

Download on the App Store